Fremont, MI

10:21 AM EDT on September 30, 2016 (GMT -0400)
Fremont

Weather History for KFFX - January, 2013

Change the Weather History Date:

Wednesday, January 23, 2013

  Actual Average (KMKG) Record (KMKG)
Temperature  
Mean Temperature 6 °F 25 °F  
Max Temperature 17 °F 30 °F 55 °F (1909)
Min Temperature -5 °F 20 °F -13 °F (1948)
Degree Days  
Heating Degree Days 59 40  
Month to date heating degree days 907  
Since 1 July heating degree days 3353  
Cooling Degree Days 0 0  
Month to date cooling degree days 0  
Year to date cooling degree days 0  
Moisture  
Dew Point 5 °F    
Average Humidity 85    
Maximum Humidity 90    
Minimum Humidity 79    
Precipitation  
Precipitation 0.00 in 0.06 in 1.20 in (1898)
Month to date precipitation 1.55  
Year to date precipitation 1.55  
Snow  
Snow 0.00 in 0.90 in 12.00 in (1898)
Month to date snowfall 20.7  
Since 1 July snowfall 55.8  
Snow Depth -    
Sea Level Pressure  
Sea Level Pressure 30.14 in    
Wind  
Wind Speed 4 mph (WSW)    
Max Wind Speed 21 mph    
Max Gust Speed 25 mph    
Visibility 3 miles    
Events Snow    
T = Trace of Precipitation, MM = Missing Value Source: NWS Daily Summary

Daily Weather History Graph

Daily Weather History Graph

Search for Another Location

Airport or City:

Trip Planner

Search our weather history database for the weather conditions in past years. The results will help you decide how hot, cold, wet, or windy it might be!

Date:

Astronomy

Jan. 23, 2013 Rise Set
Actual Time 8:08 AM EST 5:43 PM EST
Civil Twilight 7:37 AM EST 6:15 PM EST
Nautical Twilight 7:02 AM EST 6:49 PM EST
Astronomical Twilight 6:28 AM EST 7:23 PM EST
Moon 2:52 PM EST (1/23) 5:20 AM EST (1/23)
Length of Visible Light 10h 37m
Length of Day
9h 35m
Waxing Gibbous, 89% of the Moon is Illuminated
Jan 23
Waxing Gibbous
Jan 26
Full
Feb 3
Last Quarter
Feb 10
New
Feb 17
First Quarter

Hourly Weather History & Observations

Time (EST) Temp. Windchill Dew Point Humidity Pressure Visibility Wind Dir Wind Speed Gust Speed Precip Events Conditions
12:15 AM -4.5 °F -13.0 °F -8.3 °F 84% 30.25 in 7.0 mi South 3.5 mph - N/A Snow Light Snow
12:35 AM -4.4 °F - -8.5 °F 82% 30.25 in 1.5 mi Calm Calm - N/A Snow Light Snow
12:55 AM -3.6 °F - -7.8 °F 82% 30.24 in 1.5 mi Calm Calm - N/A Snow Light Snow
1:15 AM -3.5 °F - -7.4 °F 83% 30.24 in 1.5 mi Calm Calm - N/A Snow Light Snow
1:35 AM -3.8 °F - -7.8 °F 83% 30.23 in 10.0 mi Calm Calm - N/A   Clear
1:54 AM -5.1 °F - -9.2 °F 82% 30.23 in 10.0 mi Calm Calm - N/A   Clear
2:14 AM -5.4 °F - -9.8 °F 82% 30.23 in 10.0 mi Calm Calm - N/A   Clear
2:35 AM -5.8 °F - -10.3 °F 81% 30.23 in 10.0 mi Calm Calm - N/A   Mostly Cloudy
2:55 AM -5.6 °F - -10.1 °F 81% 30.23 in 10.0 mi Calm Calm - N/A   Overcast
3:15 AM -1.5 °F - -5.4 °F 83% 30.23 in 4.0 mi Calm Calm - N/A Snow Light Snow
3:35 AM 0.5 °F -7.3 °F -3.3 °F 84% 30.23 in 4.0 mi SE 3.5 mph - N/A Snow Light Snow
3:55 AM 1.4 °F -6.2 °F -2.4 °F 84% 30.23 in 2.5 mi SSE 3.5 mph - N/A Snow Light Snow
4:15 AM 2.1 °F -5.4 °F -1.7 °F 84% 30.22 in 2.0 mi SSE 3.5 mph - N/A Snow Light Snow
4:35 AM 2.3 °F -5.2 °F -1.5 °F 84% 30.22 in 2.5 mi South 3.5 mph - N/A Snow Light Snow
4:55 AM 2.3 °F -5.2 °F -1.3 °F 85% 30.21 in 1.5 mi South 3.5 mph - N/A Snow Light Snow
5:15 AM 3.0 °F - -0.4 °F 86% 30.20 in 1.8 mi Calm Calm - N/A Snow Light Snow
5:35 AM 3.2 °F -6.2 °F -0.2 °F 86% 30.20 in 2.0 mi South 4.6 mph - N/A Snow Light Snow
5:55 AM 3.9 °F -5.3 °F 0.3 °F 85% 30.20 in 3.0 mi South 4.6 mph - N/A Snow Light Snow
6:15 AM 3.9 °F -3.4 °F 0.5 °F 86% 30.19 in 4.0 mi SSE 3.5 mph - N/A Snow Light Snow
6:34 AM 4.1 °F -3.2 °F 0.9 °F 86% 30.19 in 2.5 mi SSE 3.5 mph - N/A Snow Light Snow
6:55 AM 4.6 °F -2.5 °F 1.4 °F 86% 30.19 in 2.0 mi SSE 3.5 mph - N/A Snow Light Snow
7:15 AM 5.0 °F -4.1 °F 1.6 °F 86% 30.19 in 2.5 mi SSE 4.6 mph - N/A Snow Light Snow
7:35 AM 5.0 °F -5.6 °F 1.9 °F 87% 30.18 in 2.0 mi SSE 5.8 mph - N/A Snow Light Snow
7:55 AM 5.4 °F - 2.1 °F 86% 30.18 in 1.5 mi Calm Calm - N/A Snow Light Snow
8:15 AM 5.4 °F - 2.1 °F 86% 30.18 in 1.2 mi Calm Calm - N/A Snow Light Snow
8:35 AM 5.4 °F - 2.1 °F 86% 30.18 in 0.8 mi Calm Calm - N/A Snow Light Snow
8:55 AM 5.7 °F - 2.3 °F 86% 30.17 in 0.8 mi Calm Calm - N/A Snow Light Snow
9:15 AM 5.7 °F -1.3 °F 2.5 °F 86% 30.17 in 1.2 mi South 3.5 mph - N/A Snow Light Snow
9:35 AM 6.4 °F - 3.2 °F 87% 30.17 in 3.0 mi Calm Calm - N/A Snow Light Snow
9:55 AM 6.8 °F - 3.7 °F 87% 30.16 in 3.0 mi Calm Calm - N/A Snow Light Snow
10:15 AM 7.7 °F - 4.6 °F 87% 30.16 in 1.2 mi Calm Calm - N/A Snow Light Snow
10:35 AM 8.6 °F 0.1 °F 5.5 °F 87% 30.16 in 1.8 mi South 4.6 mph - N/A Snow Light Snow
10:55 AM 9.1 °F 0.8 °F 6.1 °F 87% 30.16 in 1.2 mi South 4.6 mph - N/A Snow Light Snow
11:15 AM 10.2 °F 2.0 °F 7.2 °F 87% 30.15 in 1.2 mi South 4.6 mph - N/A Snow Light Snow
11:35 AM 10.9 °F 2.9 °F 7.5 °F 86% 30.15 in 0.8 mi South 4.6 mph - N/A Snow Light Snow
11:55 AM 11.3 °F - 7.9 °F 86% 30.14 in 0.8 mi Calm Calm - N/A Snow Light Snow
12:15 PM 12.7 °F 6.7 °F 9.0 °F 85% 30.13 in 0.5 mi SSW 3.5 mph - N/A Snow Snow
12:35 PM 13.5 °F 7.5 °F 9.3 °F 84% 30.12 in 0.8 mi SSW 3.5 mph - N/A Snow Light Snow
12:55 PM 14.0 °F 6.5 °F 10.4 °F 86% 30.11 in 0.8 mi SW 4.6 mph - N/A Snow Light Snow
1:15 PM 15.4 °F 4.6 °F 9.9 °F 79% 30.10 in 3.0 mi WSW 8.1 mph - N/A Snow Light Snow
1:35 PM 15.8 °F 8.6 °F 10.4 °F 79% 30.08 in 2.0 mi WSW 4.6 mph - N/A Snow Light Snow
1:55 PM 15.8 °F 6.1 °F 10.9 °F 81% 30.07 in 0.8 mi WSW 6.9 mph - N/A Snow Light Snow
2:15 PM 16.7 °F 4.5 °F 11.3 °F 79% 30.06 in 2.0 mi WSW 10.4 mph - N/A Snow Light Snow
2:35 PM 16.7 °F 7.2 °F 11.5 °F 80% 30.05 in 1.5 mi WSW 6.9 mph - N/A Snow Light Snow
2:54 PM 17.1 °F 10.0 °F 12.2 °F 81% 30.04 in 1.0 mi West 4.6 mph - N/A Snow Light Snow
3:15 PM 16.7 °F 5.3 °F 11.3 °F 79% 30.04 in 2.0 mi WSW 9.2 mph - N/A Snow Light Snow
3:35 PM 16.3 °F 6.7 °F 12.6 °F 85% 30.03 in 1.0 mi WSW 6.9 mph - N/A Snow Light Snow
3:55 PM 16.3 °F 7.8 °F 12.9 °F 86% 30.03 in 1.0 mi WSW 5.8 mph - N/A Snow Light Snow
4:15 PM 16.3 °F 4.1 °F 12.7 °F 86% 30.03 in 0.5 mi West 10.4 mph - N/A Snow Light Snow
4:34 PM 16.3 °F 7.8 °F 13.1 °F 87% 30.03 in 1.0 mi WSW 5.8 mph - N/A Snow Light Snow
4:55 PM 16.3 °F 7.8 °F 12.9 °F 86% 30.03 in 1.2 mi West 5.8 mph - N/A Snow Light Snow
5:15 PM 15.8 °F 5.1 °F 12.2 °F 86% 30.03 in 1.8 mi West 8.1 mph - N/A Snow Light Snow
5:35 PM 15.8 °F 7.2 °F 12.2 °F 86% 30.03 in 1.5 mi West 5.8 mph - N/A Snow Light Snow
5:55 PM 15.6 °F 7.0 °F 12.2 °F 86% 30.03 in 1.8 mi WNW 5.8 mph - N/A Snow Light Snow
6:15 PM 15.3 °F 5.4 °F 11.8 °F 86% 30.03 in 2.5 mi WNW 6.9 mph - N/A Snow Light Snow
6:35 PM 15.1 °F 7.7 °F 12.0 °F 88% 30.03 in 3.0 mi WNW 4.6 mph - N/A Snow Light Snow
6:55 PM 14.9 °F 6.1 °F 12.2 °F 89% 30.03 in 3.0 mi WNW 5.8 mph - N/A Snow Light Snow
7:15 PM 14.9 °F 5.0 °F 12.2 °F 89% 30.04 in 1.2 mi WNW 6.9 mph - N/A Snow Light Snow
7:35 PM 14.9 °F 4.0 °F 12.2 °F 89% 30.05 in 1.8 mi NW 8.1 mph - N/A Snow Light Snow
7:54 PM 14.9 °F 2.3 °F 12.4 °F 90% 30.05 in 1.2 mi NW 10.4 mph - N/A Snow Light Snow
8:15 PM 14.7 °F 2.1 °F 11.3 °F 86% 30.06 in 2.5 mi NW 10.4 mph - N/A Snow Light Snow
8:35 PM 14.4 °F -3.4 °F 11.1 °F 87% 30.07 in 0.8 mi NW 20.7 mph 25.3 mph N/A Snow Snow
8:55 PM 13.8 °F -1.1 °F 10.4 °F 86% 30.09 in 2.5 mi NW 13.8 mph - N/A Snow Light Snow
9:15 PM 13.6 °F -1.3 °F 9.0 °F 82% 30.10 in 5.0 mi NW 13.8 mph 19.6 mph N/A Snow Light Snow
9:35 PM 13.5 °F -0.9 °F 8.6 °F 81% 30.11 in 5.0 mi NW 12.7 mph - N/A   Overcast
9:55 PM 13.1 °F 0.9 °F 8.6 °F 82% 30.12 in 5.0 mi NW 9.2 mph - N/A Snow Light Snow
10:15 PM 13.1 °F -0.7 °F 8.6 °F 82% 30.12 in 4.0 mi NW 11.5 mph - N/A Snow Light Snow
10:34 PM 12.2 °F -0.2 °F 7.9 °F 83% 30.13 in 10.0 mi NW 9.2 mph - N/A   Overcast
10:55 PM 12.6 °F 0.2 °F 9.0 °F 85% 30.15 in 3.0 mi NW 9.2 mph - N/A Snow Light Snow
11:15 PM 12.9 °F 1.6 °F 9.5 °F 86% 30.16 in 2.0 mi NW 8.1 mph - N/A Snow Light Snow
11:35 PM 12.6 °F 1.1 °F 9.5 °F 88% 30.17 in 1.8 mi WNW 8.1 mph - N/A Snow Light Snow
11:55 PM 12.6 °F 3.4 °F 9.5 °F 88% 30.17 in 4.0 mi WNW 5.8 mph - N/A Snow Light Snow